Weather History for KPHN - February, 2014

Change the Weather History Date:

Monday, February 10, 2014

  Actual Average (KMTC) Record (KMTC)
Temperature  
Mean Temperature 6 °F -  
Max Temperature 17 °F 30 °F 57 °F (2009)
Min Temperature -4 °F 16 °F 0 °F (1951)
Degree Days  
Heating Degree Days 58    
Moisture  
Dew Point 6 °F    
Average Humidity 79    
Maximum Humidity 92    
Minimum Humidity 58    
Precipitation  
Precipitation 0.00 in - - ()
Sea Level Pressure  
Sea Level Pressure 30.24 in    
Wind  
Wind Speed 1 mph (WNW)    
Max Wind Speed 6 mph    
Max Gust Speed -    
Visibility 7 miles    
Events Snow    
Averages and records for this station are not official NWS values.
T = Trace of Precipitation, MM = Missing Value Source: NWS Daily Summary

Daily Weather History Graph

Daily Weather History Graph

Search for Another Location

Airport or City:

Trip Planner

Search our weather history database for the weather conditions in past years. The results will help you decide how hot, cold, wet, or windy it might be!

Date:

Astronomy

Feb. 10, 2014 Rise Set
Actual Time 7:34 AM EST 5:55 PM EST
Civil Twilight 7:04 AM EST 6:24 PM EST
Nautical Twilight 6:31 AM EST 6:57 PM EST
Astronomical Twilight 5:58 AM EST 7:30 PM EST
Moon 2:20 PM EST (2/10) 4:29 AM EST (2/10)
Length of Visible Light 11h 19m
Length of Day
10h 20m
Waxing Gibbous, 84% of the Moon is Illuminated
Feb 10
Waxing Gibbous
Feb 14
Full
Feb 22
Last Quarter
Mar 1
New
Mar 8
First Quarter

Hourly Weather History & Observations

Time (EST) Temp. Windchill Dew Point Humidity Pressure Visibility Wind Dir Wind Speed Gust Speed Precip Events Conditions
12:18 AM 1.4 °F - -2.2 °F 85% 30.13 in 4.0 mi Calm Calm - N/A Snow Light Snow
12:38 AM 5.0 °F - -0.4 °F 78% 30.12 in 2.0 mi Calm Calm - N/A Snow Light Snow
12:58 AM 5.0 °F - 1.4 °F 85% 30.12 in 3.0 mi Calm Calm - N/A Snow Light Snow
1:18 AM 5.0 °F - 1.4 °F 85% 30.13 in 7.0 mi Calm Calm - N/A   Overcast
1:38 AM 3.2 °F - -0.4 °F 85% 30.13 in 2.5 mi Calm Calm - N/A Snow Light Snow
1:58 AM 5.0 °F - 1.4 °F 85% 30.14 in 4.0 mi Calm Calm - N/A Snow Light Snow
2:18 AM 6.8 °F - 5.0 °F 92% 30.14 in 1.8 mi Calm Calm - N/A Snow Light Snow
2:38 AM 6.8 °F - 5.0 °F 92% 30.14 in 1.5 mi Calm Calm - N/A Snow Light Snow
2:58 AM 8.6 °F - 5.0 °F 85% 30.14 in 2.0 mi Calm Calm - N/A Snow Light Snow
3:18 AM 8.6 °F - 5.0 °F 85% 30.15 in 4.0 mi Calm Calm - N/A Snow Light Snow
3:38 AM 8.6 °F - 5.0 °F 85% 30.15 in 7.0 mi Calm Calm - N/A   Overcast
3:58 AM 8.6 °F - 5.0 °F 85% 30.16 in 7.0 mi Calm Calm - N/A   Overcast
4:18 AM 10.4 °F - 6.8 °F 85% 30.16 in 7.0 mi Calm Calm - N/A   Overcast
4:38 AM 10.4 °F - 6.8 °F 85% 30.16 in 4.0 mi Calm Calm - N/A Snow Light Snow
4:58 AM 10.4 °F - 6.8 °F 85% 30.17 in 5.0 mi Calm Calm - N/A   Overcast
5:18 AM 10.4 °F - 6.8 °F 85% 30.18 in 5.0 mi Calm Calm - N/A Snow Light Snow
5:38 AM 10.4 °F - 6.8 °F 85% 30.18 in 7.0 mi Calm Calm - N/A   Overcast
5:58 AM 6.8 °F - 3.2 °F 85% 30.18 in 7.0 mi Calm Calm - N/A   Overcast
6:18 AM 6.8 °F - 3.2 °F 85% 30.19 in 10.0 mi Calm Calm - N/A   Mostly Cloudy
6:38 AM 6.8 °F - 5.0 °F 92% 30.19 in 10.0 mi Calm Calm - N/A   Overcast
6:58 AM 8.6 °F 2.0 °F 5.0 °F 85% 30.20 in 7.0 mi NW 3.5 mph - N/A Snow Light Snow
7:18 AM 3.2 °F -4.2 °F -0.4 °F 85% 30.21 in 10.0 mi WNW 3.5 mph - N/A   Scattered Clouds
7:38 AM 3.2 °F - -0.4 °F 85% 30.22 in 10.0 mi Calm Calm - N/A   Clear
7:58 AM -2.2 °F - -7.6 °F 78% 30.22 in 7.0 mi Calm Calm - N/A   Clear
8:18 AM -4.0 °F - -7.6 °F 85% 30.23 in 7.0 mi Calm Calm - N/A   Clear
8:38 AM -4.0 °F - -9.4 °F 78% 30.24 in 7.0 mi Calm Calm - N/A   Clear
8:58 AM 6.8 °F -0.1 °F 3.2 °F 85% 30.24 in 7.0 mi West 3.5 mph - N/A   Clear
9:18 AM 8.6 °F 2.0 °F 6.8 °F 92% 30.25 in 7.0 mi WNW 3.5 mph - N/A   Scattered Clouds
9:38 AM 10.4 °F 4.0 °F 6.8 °F 85% 30.25 in 10.0 mi WNW 3.5 mph - N/A   Mostly Cloudy
9:58 AM 12.2 °F 4.3 °F 8.6 °F 85% 30.26 in 4.0 mi WNW 4.6 mph - N/A Snow Light Snow
10:18 AM 12.2 °F - 10.4 °F 92% 30.26 in 1.8 mi Calm Calm - N/A Snow Light Snow
10:38 AM 14.0 °F 6.5 °F 10.4 °F 86% 30.26 in 1.8 mi WNW 4.6 mph - N/A Snow Light Snow
10:58 AM 14.0 °F 5.1 °F 10.4 °F 86% 30.27 in 3.0 mi West 5.8 mph - N/A Snow Light Snow
11:18 AM 14.0 °F 6.5 °F 10.4 °F 86% 30.27 in 1.5 mi WNW 4.6 mph - N/A Snow Light Snow
11:38 AM 15.8 °F 8.6 °F 8.6 °F 73% 30.27 in 5.0 mi West 4.6 mph - N/A Snow Light Snow
11:58 AM 15.8 °F 10.2 °F 8.6 °F 73% 30.27 in 5.0 mi WNW 3.5 mph - N/A Snow Light Snow
12:18 PM 15.8 °F 10.2 °F 8.6 °F 73% 30.26 in 2.5 mi WNW 3.5 mph - N/A Snow Light Snow
12:38 PM 15.8 °F 10.2 °F 8.6 °F 73% 30.26 in 4.0 mi NW 3.5 mph - N/A Snow Light Snow
12:58 PM 15.8 °F 10.2 °F 8.6 °F 73% 30.26 in 10.0 mi NNW 3.5 mph - N/A Snow Light Snow
1:18 PM 15.8 °F 7.2 °F 8.6 °F 73% 30.25 in 10.0 mi West 5.8 mph - N/A   Overcast
1:38 PM 15.8 °F 7.2 °F 6.8 °F 68% 30.24 in 10.0 mi WNW 5.8 mph - N/A   Overcast
1:58 PM 17.6 °F 10.7 °F 6.8 °F 63% 30.24 in 10.0 mi WSW 4.6 mph - N/A   Overcast
2:18 PM 17.6 °F 12.3 °F 6.8 °F 63% 30.24 in 10.0 mi WNW 3.5 mph - N/A   Overcast
2:38 PM 17.6 °F 9.3 °F 5.0 °F 58% 30.24 in 10.0 mi West 5.8 mph - N/A   Overcast
2:58 PM 17.6 °F 10.7 °F 5.0 °F 58% 30.24 in 10.0 mi WNW 4.6 mph - N/A   Overcast
3:18 PM 17.6 °F 9.3 °F 5.0 °F 58% 30.24 in 10.0 mi WNW 5.8 mph - N/A   Overcast
3:38 PM 17.6 °F 9.3 °F 5.0 °F 58% 30.25 in 10.0 mi WNW 5.8 mph - N/A   Overcast
3:58 PM 17.6 °F 9.3 °F 5.0 °F 58% 30.25 in 10.0 mi WNW 5.8 mph - N/A   Overcast
4:18 PM 15.8 °F 7.2 °F 5.0 °F 62% 30.26 in 10.0 mi WNW 5.8 mph - N/A   Overcast
4:38 PM 17.6 °F 10.7 °F 6.8 °F 63% 30.26 in 10.0 mi WNW 4.6 mph - N/A   Overcast
4:58 PM 15.8 °F 7.2 °F 8.6 °F 73% 30.27 in 10.0 mi NE 5.8 mph - N/A   Overcast
5:18 PM 14.0 °F 6.5 °F 8.6 °F 79% 30.27 in 5.0 mi NE 4.6 mph - N/A Snow Light Snow
5:38 PM 14.0 °F - 8.6 °F 79% 30.28 in 7.0 mi Calm Calm - N/A   Overcast
5:58 PM 14.0 °F 8.2 °F 8.6 °F 79% 30.29 in 10.0 mi NE 3.5 mph - N/A   Overcast
6:18 PM 14.0 °F - 8.6 °F 79% 30.29 in 10.0 mi Calm Calm - N/A   Overcast
6:38 PM 14.0 °F - 8.6 °F 79% 30.29 in 10.0 mi Calm Calm - N/A   Overcast
6:58 PM 14.0 °F - 8.6 °F 79% 30.30 in 10.0 mi Calm Calm - N/A   Overcast
7:18 PM 14.0 °F - 8.6 °F 79% 30.31 in 10.0 mi Calm Calm - N/A   Overcast
7:38 PM 14.0 °F - 8.6 °F 79% 30.31 in 10.0 mi Calm Calm - N/A   Overcast
7:58 PM 14.0 °F - 8.6 °F 79% 30.31 in 10.0 mi Calm Calm - N/A   Overcast
8:18 PM 14.0 °F - 8.6 °F 79% 30.32 in 10.0 mi Calm Calm - N/A   Overcast
8:38 PM 14.0 °F - 6.8 °F 73% 30.32 in 10.0 mi Calm Calm - N/A   Overcast
8:58 PM 14.0 °F - 6.8 °F 73% 30.32 in 10.0 mi Calm Calm - N/A   Overcast
9:18 PM 12.2 °F - 6.8 °F 79% 30.32 in 10.0 mi Calm Calm - N/A   Overcast
9:38 PM 12.2 °F - 6.8 °F 79% 30.32 in 10.0 mi Calm Calm - N/A   Overcast
9:58 PM 12.2 °F - 6.8 °F 79% 30.33 in 10.0 mi Calm Calm - N/A   Overcast
10:18 PM 12.2 °F - 6.8 °F 79% 30.33 in 10.0 mi Calm Calm - N/A   Overcast
10:38 PM 12.2 °F - 6.8 °F 79% 30.34 in 10.0 mi Calm Calm - N/A   Overcast
10:58 PM 12.2 °F - 6.8 °F 79% 30.34 in 10.0 mi Calm Calm - N/A   Overcast
11:18 PM 12.2 °F - 6.8 °F 79% 30.34 in 10.0 mi Calm Calm - N/A   Overcast
11:38 PM 12.2 °F - 6.8 °F 79% 30.34 in 7.0 mi Calm Calm - N/A Snow Light Snow
11:58 PM 12.2 °F - 6.8 °F 79% 30.34 in 7.0 mi Calm Calm - N/A Snow Light Snow